Location: ????????
(48.4751°N, 37.6926°E)
Time: 12:13:27
(UTC+00:00)

CZ-2C R/B - Pass Details

Date: 20 January 2021
Orbit: 785 x 870 km, 98.2° (Epoch: 27 February)

Event Time Altitude Azimuth Distance (km) Brightness Sun altitude
Exits shadow 17:45:50 39° 257° (WSW) 1,273 3.9 -35.4°
Drops below altitude 10° 17:49:50 10° 222° (SW) 2,504 5.4 -36.1°
Sets 17:52:18 0° 216° (SW) 3,442 6.2 -36.5°
